TimeEDT,TemperatureF,Dew PointF,Humidity,Sea Level PressureIn,VisibilityMPH,Wind Direction,Wind SpeedMPH,Gust SpeedMPH,PrecipitationIn,Events,Conditions,WindDirDegrees,DateUTC
12:55 AM,46.6,40.5,79,30.30,10.0,WSW,4.6,-,N/A,,Partly Cloudy,240,2013-04-26 04:55:00
1:55 AM,46.8,40.8,80,30.30,10.0,WSW,4.6,-,N/A,,Clear,240,2013-04-26 05:55:00
2:55 AM,45.1,40.5,84,30.30,10.0,WSW,4.6,-,N/A,,Clear,240,2013-04-26 06:55:00
3:55 AM,44.2,39.7,84,30.31,10.0,SW,3.5,-,N/A,,Clear,230,2013-04-26 07:55:00
4:55 AM,42.6,38.7,86,30.33,10.0,Calm,Calm,-,N/A,,Partly Cloudy,0,2013-04-26 08:55:00
5:55 AM,41.2,37.9,88,30.35,10.0,NNW,5.8,-,N/A,,Clear,330,2013-04-26 09:55:00
6:55 AM,42.6,38.5,85,30.38,10.0,NNW,4.6,-,N/A,,Clear,340,2013-04-26 10:55:00
7:55 AM,50.0,40.8,71,30.40,10.0,North,6.9,-,N/A,,Clear,350,2013-04-26 11:55:00
8:55 AM,55.0,40.3,58,30.41,10.0,NNW,10.4,-,N/A,,Clear,330,2013-04-26 12:55:00
9:55 AM,58.1,39.9,51,30.42,10.0,North,11.5,-,N/A,,Clear,350,2013-04-26 13:55:00
10:55 AM,60.4,38.8,45,30.43,10.0,North,8.1,-,N/A,,Clear,360,2013-04-26 14:55:00
11:55 AM,61.9,37.2,40,30.42,10.0,WNW,6.9,-,N/A,,Clear,300,2013-04-26 15:55:00
12:55 PM,63.0,37.2,38,30.40,10.0,WNW,9.2,-,N/A,,Clear,290,2013-04-26 16:55:00
1:55 PM,63.0,34.0,34,30.39,10.0,WNW,10.4,-,N/A,,Clear,300,2013-04-26 17:55:00
2:55 PM,64.6,38.3,38,30.38,10.0,West,13.8,20.7,N/A,,Clear,260,2013-04-26 18:55:00
3:55 PM,64.9,36.7,35,30.36,10.0,West,10.4,-,N/A,,Clear,270,2013-04-26 19:55:00
4:55 PM,64.6,32.9,31,30.37,10.0,WNW,12.7,-,N/A,,Clear,290,2013-04-26 20:55:00
5:55 PM,63.3,34.3,34,30.37,10.0,NW,9.2,-,N/A,,Clear,320,2013-04-26 21:55:00
6:55 PM,61.2,32.2,34,30.36,10.0,NW,9.2,-,N/A,,Clear,310,2013-04-26 22:55:00
7:55 PM,56.5,31.6,39,30.38,10.0,NW,5.8,-,N/A,,Clear,310,2013-04-26 23:55:00
8:55 PM,55.0,31.1,40,30.40,10.0,Calm,Calm,-,N/A,,Clear,0,2013-04-27 00:55:00
9:55 PM,52.3,32.9,48,30.42,10.0,Calm,Calm,-,N/A,,Clear,0,2013-04-27 01:55:00
10:55 PM,54.1,35.4,49,30.42,10.0,South,3.5,-,N/A,,Clear,190,2013-04-27 02:55:00
11:55 PM,49.8,37.8,63,30.41,10.0,SSW,5.8,-,N/A,,Clear,210,2013-04-27 03:55:00